Retour au catalogue

IRIDIUM 33 DEB

ActifPO
NORAD 34366·DEBRIS·🇺🇸 United States

Lancé Sep 14, 1997 depuis Baikonur Cosmodrome

Loading…

Prochains Passages (prochaines 24 heures)

TLE

FraisSource: Space-Track

Époque: Sep 14, 2026, 00:58 UTC

1 34366U 97051FJ  26257.04039225  .00002536  00000-0  56671-3 0  9995
2 34366  86.3644 289.3214 0017115 295.3028  91.5889 14.56342814921862

Suivez IRIDIUM 33 DEB en temps réel avec AllMySat

Download on the App Store